Flag for Germany Weather past 2 weeks in Alsdorf, North Rhine-Westphalia, Germany

Now
61 °F

Sunny.


Feels Like: 61 °F
Forecast: 41 / 51 °F
Wind: 12 mph from West

Location: Geilenkirchen Airport


UV Index: 0 (Low)

Visibility: 10 mi


Pressure: 29.98 "Hg

Humidity: 34%

Dew point: 32 °F

Location of AlsdorfLocation

Historic Weather in Alsdorf

°F

Alsdorf temperature yesterday

Maximum temperature yesterday: 59 °F (at 4:50 PM)
Minimum temperature yesterday: 30 °F (at 5:50 AM)
Average temperature yesterday: 46 °F

Past Weeks' High & Low Weather Summary

 TemperatureHumidityPressure
High70 °F (Apr 2, 7:50 PM)100% (Apr 7, 11:50 PM)30.45 "Hg (Apr 7, 11:50 PM)
Low30 °F (Apr 16, 5:50 AM)30% (Apr 17, 2:50 PM)29.62 "Hg (Apr 3, 2:50 AM)
Average53 °F69%30.08 "Hg
* Reported Apr 2 7:50 PM — Apr 17 7:50 PM, Alsdorf, Weather by CustomWeather, © 2014

Note: Actual official high and low records may vary slightly from our data, if they occured in-between our weather recording intervals... More about our weather records

Advertising

Historic Weather Conditions — Data for Previous 24 hours

 ConditionsComfort  
Time TempWeatherWind HumidityBarometerVisibility
7:50 PM
Apr 17
61 °FSunny.12 mph34%29.98 "Hg10 mi
6:50 PM63 °FSunny.13 mph30%29.98 "Hg10 mi
5:50 PM64 °FSunny.12 mph30%30.01 "Hg10 mi
4:50 PM64 °FSunny.12 mph30%30.04 "Hg10 mi
3:50 PM64 °FSunny.10 mph30%30.07 "Hg10 mi
2:50 PM63 °FSunny.8 mph30%30.09 "Hg10 mi
1:50 PM61 °FSunny.7 mph31%30.12 "Hg10 mi
11:50 AM59 °FSunny.8 mph34%30.21 "Hg10 mi
10:50 AM57 °FSunny.7 mph41%30.21 "Hg10 mi
9:50 AM55 °FSunny.6 mph41%30.24 "Hg10 mi
8:50 AM48 °FSunny.2 mph58%30.24 "Hg10 mi
7:50 AM41 °FSunny.3 mph76%30.24 "Hg10 mi
6:50 AM41 °FClear.1 mph70%30.27 "Hg10 mi
5:50 AM41 °FClear.1 mph70%30.27 "Hg10 mi
4:50 AM39 °FClear.3 mph75%30.27 "Hg10 mi
3:50 AM45 °FClear.2 mph61%30.30 "Hg10 mi
2:50 AM41 °FClear.No wind70%30.30 "Hg10 mi
1:50 AM48 °FClear.No wind54%30.30 "Hg10 mi
12:50 AM48 °FClear.1 mph54%30.33 "Hg10 mi
11:50 PM
Apr 16
50 °FClear.3 mph50%30.33 "Hg10 mi
10:50 PM46 °FClear.No wind57%30.33 "Hg10 mi
Weather by CustomWeather, © 2014

See weather overview